Weather past 2 weeks in Amsterdam Island, French Southern Territories

Now
53 °F

Cool.


Feels Like: 50 °F
Forecast: 54 / 57 °F
Wind: 10 mph from West

Location: Martin De Vivies Ile Amsterdam

Current Time: Jul 31, 2015 at 8:38:07 AM

Latest Report: Jul 31, 2015 at 7:00 AM


Visibility: N/A

Pressure: 30.14 "Hg

Humidity: 94%

Dew point: 52 °F

Location of Amsterdam IslandLocation

Historic Weather in Amsterdam Island — Graph

°F

Amsterdam Island temperature yesterday

Maximum temperature yesterday: 58 °F (at 10:00 AM)
Minimum temperature yesterday: 56 °F (at 12:00 AM)
Average temperature yesterday: 57 °F

Past Weeks' High & Low Weather Summary

 TemperatureHumidityPressure
High59 °F (Jul 26, 12:00 PM)96% (Jul 27, 4:00 AM)30.61 "Hg (Jul 27, 4:00 AM)
Low45 °F (Jul 18, 7:00 AM)55% (Jul 28, 2:00 PM)29.76 "Hg (Jul 24, 2:00 PM)
Average52 °F78%30.27 "Hg
* Reported Jul 16 7:00 AM — Jul 31 7:00 AM, Amsterdam Island, Weather by CustomWeather, © 2015

Note: Actual official high and low records may vary slightly from our data, if they occured in-between our weather recording intervals... More about our weather records

Advertising

Amsterdam Island weather history for previous 24 hours

 ConditionsComfort  
Time TempWeatherWind HumidityBarometerVisibility
7:00 AM
Fri, Jul 31
53 °FCool.10 mph94%30.14 "HgN/A
6:00 AM55 °FCool.14 mph95%30.13 "HgN/A
5:00 AM55 °FCool.12 mph96%30.13 "HgN/A
4:00 AM56 °FCool.9 mph96%30.11 "HgN/A
1:00 AM56 °FCool.16 mph96%30.14 "HgN/A
12:00 AM56 °FCool.22 mph96%30.16 "HgN/A
11:00 PM
Thu, Jul 30
57 °FCool.21 mph95%30.17 "HgN/A
10:00 PM57 °FCool.20 mph95%30.18 "HgN/A
9:00 PM57 °FCool.20 mph95%30.19 "HgN/A
8:00 PM57 °FCool.23 mph95%30.19 "HgN/A
7:00 PM57 °FCool.23 mph95%30.19 "HgN/A
6:00 PM57 °FCool.22 mph95%30.19 "HgN/A
5:00 PM57 °FCool.18 mph94%30.19 "HgN/A
4:00 PM57 °FCool.18 mph93%30.20 "HgN/A
3:00 PM57 °FCool.21 mph94%30.20 "HgN/A
2:00 PM57 °FCool.21 mph93%30.20 "HgN/A
1:00 PM57 °FCool.24 mph92%30.21 "HgN/A
12:00 PM57 °FCool.22 mph92%30.23 "HgN/A
11:00 AM56 °FCool.23 mph92%30.26 "HgN/A
10:00 AM58 °FCool.24 mph87%30.27 "HgN/A
8:00 AM57 °FCool.23 mph88%30.26 "HgN/A
Weather by CustomWeather, © 2015

See weather overviewHow to use our weather pages